Location: Corralito
(10.2667°N, 66.9500°W)
Time: 08:34:42
(UTC+00:00)

GPS 2-15 Rocket1 - Pass Details

Date: 11 December 2023
Orbit: 617 x 666 km, 19.8° (Epoch: 02 March)

Event Time Altitude Azimuth Distance (km) Brightness Sun altitude
Rises 23:02:22 0° 238° (WSW) 2,969 8.4 -13.4°
Reaches altitude 10° 23:04:51 10° 232° (SW) 2,051 7.0 -14.0°
Maximum altitude 23:09:28 45° 160° (SSE) 879 3.8 -15.0°
Enters shadow 23:12:08 22° 98° (E) 1,385 4.3 -15.6°
